TimeEDT,TemperatureF,Dew PointF,Humidity,Sea Level PressureIn,VisibilityMPH,Wind Direction,Wind SpeedMPH,Gust SpeedMPH,PrecipitationIn,Events,Conditions,WindDirDegrees,DateUTC
12:53 AM,75.9,70.0,82,30.02,10.0,Calm,Calm,-,N/A,,Clear,0,2013-07-19 04:53:00
1:53 AM,75.0,71.1,87,30.01,10.0,Calm,Calm,-,N/A,,Clear,0,2013-07-19 05:53:00
2:53 AM,75.0,71.1,87,30.01,9.0,Calm,Calm,-,N/A,,Clear,0,2013-07-19 06:53:00
3:53 AM,75.0,71.1,87,30.00,7.0,Calm,Calm,-,N/A,,Clear,0,2013-07-19 07:53:00
4:53 AM,73.0,70.0,90,30.00,5.0,Calm,Calm,-,N/A,,Clear,0,2013-07-19 08:53:00
5:53 AM,73.0,70.0,90,30.00,4.0,Calm,Calm,-,N/A,,Clear,0,2013-07-19 09:53:00
6:37 AM,73.4,69.8,88,30.00,2.5,Calm,Calm,-,N/A,,Clear,0,2013-07-19 10:37:00
6:53 AM,75.0,71.1,87,29.99,4.0,Calm,Calm,-,N/A,,Clear,0,2013-07-19 10:53:00
7:53 AM,81.0,73.0,77,30.00,5.0,Calm,Calm,-,N/A,,Haze,0,2013-07-19 11:53:00
8:53 AM,86.0,73.9,67,30.00,8.0,Variable,3.5,-,N/A,,Clear,0,2013-07-19 12:53:00
9:53 AM,88.0,73.9,63,29.99,9.0,West,4.6,-,N/A,,Clear,270,2013-07-19 13:53:00
10:53 AM,89.1,73.9,61,29.99,9.0,Variable,4.6,-,N/A,,Clear,0,2013-07-19 14:53:00
11:53 AM,91.0,73.0,55,29.98,9.0,Variable,5.8,-,N/A,,Partly Cloudy,0,2013-07-19 15:53:00
12:53 PM,91.0,72.0,53,29.96,10.0,WSW,6.9,-,N/A,,Clear,240,2013-07-19 16:53:00
1:53 PM,93.0,71.1,49,29.94,10.0,SW,8.1,-,N/A,,Partly Cloudy,230,2013-07-19 17:53:00
2:53 PM,93.0,71.1,49,29.91,10.0,SW,6.9,-,N/A,,Partly Cloudy,230,2013-07-19 18:53:00
3:53 PM,93.9,68.0,43,29.88,10.0,SW,9.2,-,N/A,,Clear,230,2013-07-19 19:53:00
4:53 PM,93.9,68.0,43,29.87,10.0,SW,9.2,-,N/A,,Clear,230,2013-07-19 20:53:00
5:53 PM,93.0,68.0,44,29.86,10.0,SW,8.1,-,N/A,,Clear,220,2013-07-19 21:53:00
6:03 PM,91.4,69.8,49,29.87,10.0,SW,5.8,-,N/A,Thunderstorm,Clear,230,2013-07-19 22:03:00
6:37 PM,89.6,71.6,55,29.87,10.0,SW,3.5,-,N/A,,Partly Cloudy,230,2013-07-19 22:37:00
6:53 PM,89.1,71.1,55,29.86,10.0,SW,3.5,-,N/A,,Partly Cloudy,230,2013-07-19 22:53:00
7:11 PM,89.6,69.8,52,29.88,10.0,SW,6.9,-,N/A,Thunderstorm,Clear,230,2013-07-19 23:11:00
7:51 PM,73.4,66.2,78,29.94,1.2,West,12.7,29.9,0.00,Rain-Thunderstorm,Light Thunderstorms and Rain,270,2013-07-19 23:51:00
7:53 PM,73.0,66.0,79,29.94,1.0,West,11.5,29.9,0.00,Rain-Thunderstorm,Light Thunderstorms and Rain,270,2013-07-19 23:53:00
8:01 PM,73.4,66.2,78,29.94,3.0,West,16.1,27.6,0.00,Rain-Thunderstorm,Light Thunderstorms and Rain,270,2013-07-20 00:01:00
8:37 PM,73.4,66.2,78,29.87,10.0,Variable,4.6,-,0.01,,Mostly Cloudy,0,2013-07-20 00:37:00
8:53 PM,73.0,66.9,81,29.88,10.0,West,5.8,-,0.01,Thunderstorm,Thunderstorm,280,2013-07-20 00:53:00
9:12 PM,75.2,66.2,73,29.87,10.0,West,6.9,-,0.00,Rain,Light Rain,260,2013-07-20 01:12:00
9:53 PM,77.0,66.9,71,29.87,10.0,Calm,Calm,-,0.00,,Partly Cloudy,0,2013-07-20 01:53:00
10:53 PM,80.1,64.9,60,29.88,10.0,WSW,6.9,-,N/A,,Clear,240,2013-07-20 02:53:00
11:53 PM,73.9,66.9,79,29.89,10.0,West,5.8,-,N/A,,Clear,280,2013-07-20 03:53:00